Zurück zum Katalog

FENGYUN 1C DEB

AktivSSO
NORAD 30700·DEBRIS·🇨🇳 China

Gestartet May 10, 1999 von Taiyuan Satellite Launch Center

Loading…

Nächste Überflüge (nächste 24 Stunden)

TLE

AktuellSource: Space-Track

Epoche: Sep 14, 2026, 07:28 UTC

1 30700U 99025ARJ 26257.31155980  .00000229  00000-0  11350-3 0  9995
2 30700  98.5172 282.4148 0087200  60.9295 300.0583 14.24008983 14857

Verfolge FENGYUN 1C DEB in Echtzeit mit AllMySat

Download on the App Store